Content
SEND FEEDBACK

Daily
Averages
Monthly
Summary
United States of America

ST. LOUIS, MISSOURI


Home > North America > United States > Missouri
Elevation: 163 meters     Latitude: 38 45N     Longitude: 090 22W

WEATHER
 
SELECT A DAY
Number of Records: 196,674;   Date Range: 1/1/95 - 9/21/14
 
SHARE

PRINT THIS DATA

[ ← Previous Day ]
WEATHER ALMANAC - 18 SEPTEMBER, 2013
[ Next Day → ]
[ °F ]   °C
Weather ElementAverageHighLow
Temperature24.4 °C31.7 °C (2:54 pm)18.9 °C (1:54 am)
Dewpoint18.9 °C20 °C (10:54 am)17.8 °C (1:54 am)
Humidity73.4 %94 % (3:22 am)48 % (3:54 pm)
Barometer1015.9 hPa1017.9 hPa (1:54 am)1013.9 hPa (3:54 pm)
Wind Speed8 km/h24.1 km/h (3:54 pm)
Wind Gust35.2 km/h (4:07 pm)
Weather ElementAverage
Visibility13 km
Wind DirectionSSE (158.9 °)

Weather ElementTotal
Precipitation3.81 mm
Cooling Degree Days7 (Base 18.3)
Growing Degree Days15.3 (Base 10)
Averaged from 27 records on 18 September, 2013
WEATHER CONDITIONS BREAKOUT
WIND DIRECTION BREAKOUT
WEATHER BY HOUR - 18 SEPTEMBER, 2013
[ °F ]   °C
Local TimeTemperatureDewpointHumidityBarometerVisibilityWind DirectionWind SpeedGust SpeedPrecipitationEventsConditions
1:54 AM18.9 °C17.8 °C93 %1017.9 hPa8 kmNNW (330°)9.3 km/h0 mmRainLight Rain
2:54 AM18.9 °C17.8 °C93 %1017.9 hPa4.8 kmCalm0.76 mmOvercast
3:22 AM19 °C18 °C94 %1017.9 hPa4 kmESE (110°)9.3 km/h0.51 mmRainLight Rain
3:29 AM19 °C18 °C94 %1017.9 hPa6.4 kmCalm0.76 mmRainLight Rain
3:54 AM18.9 °C17.8 °C93 %1017.6 hPa9.7 kmEast (80°)7.4 km/h0.76 mmRainLight Rain
4:54 AM18.9 °C17.8 °C93 %1016.9 hPa9.7 kmESE (110°)7.4 km/h0.76 mmScattered Clouds
5:54 AM19.4 °C18.3 °C93 %1017.3 hPa6.4 kmSouth (180°)5.6 km/h0.25 mmRainLight Rain
6:54 AM20 °C18.3 °C90 %1017.3 hPa11.3 kmSSE (150°)7.4 km/h0 mmMostly Cloudy
7:54 AM20 °C18.3 °C90 %1017.3 hPa9.7 kmSSE (150°)7.4 km/hMostly Cloudy
8:54 AM21.1 °C18.9 °C87 %1017.3 hPa9.7 kmSouth (170°)7.4 km/hMostly Cloudy
9:54 AM23.3 °C19.4 °C79 %1017.3 hPa16.1 kmSouth (170°)7.4 km/hPartly Cloudy
10:54 AM26.1 °C20 °C69 %1016.9 hPa16.1 kmSouth (180°)9.3 km/hClear
11:54 AM27.2 °C19.4 °C62 %1016.6 hPa16.1 kmSouth (190°)11.1 km/hMostly Cloudy
12:54 PM28.9 °C19.4 °C56 %1015.9 hPa16.1 kmSW (220°)5.6 km/hClear
1:54 PM30 °C20 °C55 %1014.9 hPa16.1 kmCalmMostly Cloudy
2:54 PM31.7 °C20 °C50 %1014.6 hPa16.1 kmSW (230°)11.1 km/hMostly Cloudy
3:54 PM31.7 °C19.4 °C48 %1013.9 hPa16.1 kmWSW (240°)24.1 km/hMostly Cloudy
4:07 PM31 °C19 °C49 %1014.6 hPa16.1 kmSW (220°)22.2 km/h35.2 km/hThunderstormMostly Cloudy
4:22 PM29 °C19 °C55 %1014.6 hPa16.1 kmSW (220°)13 km/hMostly Cloudy
4:54 PM30 °C19.4 °C53 %1013.9 hPa16.1 kmSW (220°)11.1 km/hMostly Cloudy
5:54 PM28.3 °C18.9 °C56 %1013.9 hPa16.1 kmSW (220°)11.1 km/hMostly Cloudy
6:54 PM26.7 °C18.3 °C60 %1013.9 hPa16.1 kmSSW (210°)7.4 km/hScattered Clouds
7:54 PM23.3 °C19.4 °C79 %1013.9 hPa16.1 kmSSE (160°)5.6 km/hScattered Clouds
8:54 PM24.4 °C19.4 °C74 %1013.9 hPa16.1 kmSouth (180°)5.6 km/hMostly Cloudy
9:54 PM25 °C19.4 °C71 %1013.9 hPa16.1 kmSouth (180°)5.6 km/hMostly Cloudy
10:54 PM25 °C19.4 °C71 %1014.2 hPa16.1 kmCalmClear
11:54 PM25 °C20 °C74 %1013.9 hPa16.1 kmSouth (170°)7.4 km/hClear
Hourly data recorded from KSUS, located 0 kilometers away from St. Louis, Missouri







STORIES FROM OUR PARTNERS